Time,TemperatureF,DewpointF,PressureIn,WindDirection,WindDirectionDegrees,WindSpeedMPH,WindSpeedGustMPH,Humidity,HourlyPrecipIn,Conditions,Clouds,dailyrainin,SoftwareType,DateUTC
2013-09-12 00:09:00,64.6,57.5,29.99,WNW,282,0.0,6.0,78,0.00,,,-99.99,Weather View 32 v60,2013-09-12 07:09:00,
2013-09-12 00:20:00,64.6,57.5,29.99,West,279,0.0,6.0,78,0.00,,,-99.99,Weather View 32 v60,2013-09-12 07:20:00,
2013-09-12 00:30:00,64.6,57.5,29.99,SSW,203,0.0,6.0,78,0.00,,,-99.99,Weather View 32 v60,2013-09-12 07:30:00,
2013-09-12 00:40:00,64.8,57.7,29.96,SSW,200,0.0,3.0,78,0.00,,,-99.99,Weather View 32 v60,2013-09-12 07:40:00,
2013-09-12 00:49:00,64.8,57.7,29.96,SW,223,0.0,0.0,78,0.00,,,-99.99,Weather View 32 v60,2013-09-12 07:49:00,
2013-09-12 00:57:00,64.8,57.7,29.96,SW,223,0.0,0.0,78,0.00,,,-99.99,Weather View 32 v60,2013-09-12 07:57:00,
2013-09-12 01:09:00,64.6,57.5,29.99,WSW,251,0.0,0.0,78,0.00,,,-99.99,Weather View 32 v60,2013-09-12 08:09:00,
2013-09-12 01:20:00,64.6,57.9,29.99,SW,232,0.0,0.0,79,0.00,,,-99.99,Weather View 32 v60,2013-09-12 08:20:00,
2013-09-12 01:30:00,64.6,57.9,29.99,South,185,0.0,5.0,79,0.00,,,-99.99,Weather View 32 v60,2013-09-12 08:30:00,
2013-09-12 01:40:00,64.6,58.3,29.96,WNW,284,0.0,5.0,80,0.00,,,-99.99,Weather View 32 v60,2013-09-12 08:40:00,
2013-09-12 01:49:00,64.6,58.3,29.96,WSW,246,0.0,5.0,80,0.00,,,-99.99,Weather View 32 v60,2013-09-12 08:49:00,
2013-09-12 01:57:00,64.6,58.3,29.96,WSW,246,0.0,5.0,80,0.00,,,-99.99,Weather View 32 v60,2013-09-12 08:57:00,
2013-09-12 02:09:00,64.4,58.1,29.96,South,186,0.0,5.0,80,0.00,,,-99.99,Weather View 32 v60,2013-09-12 09:09:00,
2013-09-12 02:19:00,64.2,57.9,29.96,SW,235,4.0,6.0,80,0.00,,,-99.99,Weather View 32 v60,2013-09-12 09:19:00,
2013-09-12 02:29:00,64.2,57.9,29.96,SSW,206,0.0,7.0,80,0.00,,,-99.99,Weather View 32 v60,2013-09-12 09:29:00,
2013-09-12 02:39:00,64.2,57.9,29.96,WSW,248,0.0,7.0,80,0.00,,,-99.99,Weather View 32 v60,2013-09-12 09:39:00,
2013-09-12 02:49:00,64.2,57.9,29.96,WSW,241,0.0,7.0,80,0.00,,,-99.99,Weather View 32 v60,2013-09-12 09:49:00,
2013-09-12 02:58:00,64.2,57.9,29.96,WSW,241,0.0,7.0,80,0.00,,,-99.99,Weather View 32 v60,2013-09-12 09:58:00,
2013-09-12 03:09:00,63.9,57.9,29.96,WSW,238,0.0,7.0,81,0.00,,,-99.99,Weather View 32 v60,2013-09-12 10:09:00,
2013-09-12 03:19:00,63.7,58.1,29.96,WSW,249,0.0,7.0,82,0.00,,,-99.99,Weather View 32 v60,2013-09-12 10:19:00,
2013-09-12 03:29:00,63.7,58.1,29.96,WSW,258,0.0,7.0,82,0.00,,,-99.99,Weather View 32 v60,2013-09-12 10:29:00,
2013-09-12 03:39:00,63.7,58.1,29.96,WSW,246,0.0,5.0,82,0.00,,,-99.99,Weather View 32 v60,2013-09-12 10:39:00,
2013-09-12 03:49:00,63.7,58.1,29.96,SW,230,0.0,5.0,82,0.00,,,-99.99,Weather View 32 v60,2013-09-12 10:49:00,
2013-09-12 03:58:00,63.7,58.1,29.96,SW,230,0.0,5.0,82,0.00,,,-99.99,Weather View 32 v60,2013-09-12 10:58:00,
2013-09-12 04:09:00,63.5,57.9,29.96,WSW,249,0.0,5.0,82,0.00,,,-99.99,Weather View 32 v60,2013-09-12 11:09:00,
2013-09-12 04:19:00,63.5,57.9,29.96,West,264,0.0,5.0,82,0.00,,,-99.99,Weather View 32 v60,2013-09-12 11:19:00,
2013-09-12 04:29:00,63.5,57.9,29.96,WSW,258,0.0,5.0,82,0.00,,,-99.99,Weather View 32 v60,2013-09-12 11:29:00,
2013-09-12 04:40:00,63.5,57.9,29.96,SW,217,0.0,6.0,82,0.00,,,-99.99,Weather View 32 v60,2013-09-12 11:40:00,
2013-09-12 04:50:00,63.7,58.1,29.96,West,260,0.0,6.0,82,0.00,,,-99.99,Weather View 32 v60,2013-09-12 11:50:00,
2013-09-12 04:59:00,63.7,58.1,29.96,West,260,0.0,6.0,82,0.00,,,-99.99,Weather View 32 v60,2013-09-12 11:59:00,
2013-09-12 05:09:00,63.5,57.9,29.96,WSW,253,0.0,6.0,82,0.00,,,-99.99,Weather View 32 v60,2013-09-12 12:09:00,
2013-09-12 05:20:00,63.5,58.2,29.96,SW,234,0.0,6.0,83,0.00,,,-99.99,Weather View 32 v60,2013-09-12 12:20:00,
2013-09-12 05:29:00,63.3,58.1,29.96,WSW,250,0.0,6.0,83,0.00,,,-99.99,Weather View 32 v60,2013-09-12 12:29:00,
2013-09-12 05:40:00,63.3,58.4,29.96,SW,230,4.0,5.0,84,0.00,,,-99.99,Weather View 32 v60,2013-09-12 12:40:00,
2013-09-12 05:49:00,63.1,58.2,29.96,SSW,210,0.0,5.0,84,0.00,,,-99.99,Weather View 32 v60,2013-09-12 12:49:00,
2013-09-12 05:59:00,63.1,58.2,29.96,SSW,210,0.0,5.0,84,0.00,,,-99.99,Weather View 32 v60,2013-09-12 12:59:00,
2013-09-12 06:09:00,63.1,58.2,29.96,West,269,0.0,5.0,84,0.00,,,-99.99,Weather View 32 v60,2013-09-12 13:09:00,
2013-09-12 06:19:00,63.1,58.2,29.96,WSW,245,0.0,5.0,84,0.00,,,-99.99,Weather View 32 v60,2013-09-12 13:19:00,
2013-09-12 06:29:00,63.3,58.4,29.96,West,264,0.0,5.0,84,0.00,,,-99.99,Weather View 32 v60,2013-09-12 13:29:00,
2013-09-12 06:39:00,63.1,57.9,29.96,West,281,0.0,5.0,83,0.00,,,-99.99,Weather View 32 v60,2013-09-12 13:39:00,
2013-09-12 06:50:00,63.1,58.2,29.96,WSW,257,0.0,4.0,84,0.00,,,-99.99,Weather View 32 v60,2013-09-12 13:50:00,
2013-09-12 07:00:00,63.3,58.1,29.96,West,266,0.0,4.0,83,0.00,,,-99.99,Weather View 32 v60,2013-09-12 14:00:00,
2013-09-12 07:10:00,63.3,58.1,29.99,SW,226,0.0,4.0,83,0.00,,,-99.99,Weather View 32 v60,2013-09-12 14:10:00,
2013-09-12 07:19:00,63.5,58.2,29.99,SSW,208,0.0,4.0,83,0.00,,,-99.99,Weather View 32 v60,2013-09-12 14:19:00,
2013-09-12 07:29:00,63.5,57.9,29.99,SSW,212,0.0,0.0,82,0.00,,,-99.99,Weather View 32 v60,2013-09-12 14:29:00,
2013-09-12 07:39:00,63.7,58.1,29.99,SW,224,0.0,0.0,82,0.00,,,-99.99,Weather View 32 v60,2013-09-12 14:39:00,
2013-09-12 07:49:00,63.9,58.2,29.99,NNW,338,0.0,0.0,82,0.00,,,-99.99,Weather View 32 v60,2013-09-12 14:49:00,
2013-09-12 07:59:00,64.0,58.4,29.99,WSW,253,0.0,0.0,82,0.00,,,-99.99,Weather View 32 v60,2013-09-12 14:59:00,
2013-09-12 08:09:00,64.2,58.2,29.99,NW,311,0.0,0.0,81,0.00,,,-99.99,Weather View 32 v60,2013-09-12 15:09:00,
2013-09-12 08:19:00,64.4,58.4,29.99,SW,233,0.0,0.0,81,0.00,,,-99.99,Weather View 32 v60,2013-09-12 15:19:00,
2013-09-12 08:29:00,64.8,58.1,29.99,WSW,248,0.0,0.0,79,0.00,,,-99.99,Weather View 32 v60,2013-09-12 15:29:00,
2013-09-12 08:39:00,65.1,58.8,29.99,SSW,204,0.0,0.0,80,0.00,,,-99.99,Weather View 32 v60,2013-09-12 15:39:00,
2013-09-12 08:49:00,65.5,58.4,29.99,West,269,0.0,0.0,78,0.00,,,-99.99,Weather View 32 v60,2013-09-12 15:49:00,
2013-09-12 08:59:00,65.7,58.6,29.99,SW,236,0.0,0.0,78,0.00,,,-99.99,Weather View 32 v60,2013-09-12 15:59:00,
2013-09-12 09:09:00,65.8,58.4,29.99,WSW,242,0.0,0.0,77,0.00,,,-99.99,Weather View 32 v60,2013-09-12 16:09:00,
2013-09-12 09:19:00,66.0,58.2,29.99,SW,229,0.0,0.0,76,0.00,,,-99.99,Weather View 32 v60,2013-09-12 16:19:00,
2013-09-12 09:29:00,66.4,58.2,29.99,SW,221,0.0,0.0,75,0.00,,,-99.99,Weather View 32 v60,2013-09-12 16:29:00,
2013-09-12 09:39:00,66.9,58.3,29.99,WNW,295,0.0,0.0,74,0.00,,,-99.99,Weather View 32 v60,2013-09-12 16:39:00,
2013-09-12 09:49:00,67.3,57.9,29.99,West,278,0.0,0.0,72,0.00,,,-99.99,Weather View 32 v60,2013-09-12 16:49:00,
2013-09-12 09:59:00,67.6,57.9,29.99,WNW,302,0.0,0.0,71,0.00,,,-99.99,Weather View 32 v60,2013-09-12 16:59:00,
2013-09-12 10:09:00,68.0,57.8,29.99,NNW,331,0.0,0.0,70,0.00,,,-99.99,Weather View 32 v60,2013-09-12 17:09:00,
2013-09-12 10:19:00,68.5,57.9,29.99,WNW,296,0.0,0.0,69,0.00,,,-99.99,Weather View 32 v60,2013-09-12 17:19:00,
2013-09-12 10:29:00,69.3,58.2,29.99,NNW,330,0.0,6.0,68,0.00,,,-99.99,Weather View 32 v60,2013-09-12 17:29:00,
2013-09-12 10:39:00,69.6,57.3,29.99,NNW,337,0.0,6.0,65,0.00,,,-99.99,Weather View 32 v60,2013-09-12 17:39:00,
2013-09-12 10:49:00,70.3,57.5,29.99,West,262,0.0,6.0,64,0.00,,,-99.99,Weather View 32 v60,2013-09-12 17:49:00,
2013-09-12 10:59:00,71.1,57.3,29.99,NW,305,0.0,6.0,62,0.00,,,-99.99,Weather View 32 v60,2013-09-12 17:59:00,
2013-09-12 11:09:00,72.1,57.4,29.99,West,271,0.0,6.0,60,0.00,,,-99.99,Weather View 32 v60,2013-09-12 18:09:00,
2013-09-12 11:19:00,72.5,56.4,29.99,NNW,328,0.0,6.0,57,0.00,,,-99.99,Weather View 32 v60,2013-09-12 18:19:00,
2013-09-12 11:29:00,72.7,56.0,29.99,NNW,340,7.0,7.0,56,0.00,,,-99.99,Weather View 32 v60,2013-09-12 18:29:00,
2013-09-12 11:39:00,72.9,56.7,29.99,SW,234,0.0,8.0,57,0.00,,,-99.99,Weather View 32 v60,2013-09-12 18:39:00,
2013-09-12 11:49:00,74.3,56.0,29.99,NW,323,0.0,8.0,53,0.00,,,-99.99,Weather View 32 v60,2013-09-12 18:49:00,
2013-09-12 11:59:00,74.3,56.0,29.96,WSW,249,0.0,8.0,53,0.00,,,-99.99,Weather View 32 v60,2013-09-12 18:59:00,
2013-09-12 12:09:00,74.7,55.3,29.96,West,264,0.0,8.0,51,0.00,,,-99.99,Weather View 32 v60,2013-09-12 19:09:00,
2013-09-12 12:19:00,75.9,55.9,29.96,North,351,0.0,8.0,50,0.00,,,-99.99,Weather View 32 v60,2013-09-12 19:19:00,
2013-09-12 12:29:00,76.6,55.4,29.96,WSW,242,0.0,8.0,48,0.00,,,-99.99,Weather View 32 v60,2013-09-12 19:29:00,
2013-09-12 12:39:00,77.7,54.6,29.96,NW,311,0.0,7.0,45,0.00,,,-99.99,Weather View 32 v60,2013-09-12 19:39:00,
2013-09-12 12:49:00,77.9,54.8,29.96,West,264,0.0,7.0,45,0.00,,,-99.99,Weather View 32 v60,2013-09-12 19:49:00,
2013-09-12 12:59:00,79.2,55.3,29.96,West,259,0.0,7.0,44,0.00,,,-99.99,Weather View 32 v60,2013-09-12 19:59:00,
2013-09-12 13:09:00,79.5,55.0,29.96,NNE,27,0.0,7.0,43,0.00,,,-99.99,Weather View 32 v60,2013-09-12 20:09:00,
2013-09-12 13:19:00,80.2,55.0,29.96,North,351,0.0,7.0,42,0.00,,,-99.99,Weather View 32 v60,2013-09-12 20:19:00,
2013-09-12 13:29:00,81.1,55.1,29.93,NW,314,0.0,7.0,41,0.00,,,-99.99,Weather View 32 v60,2013-09-12 20:29:00,
2013-09-12 13:39:00,81.3,54.6,29.93,NE,42,0.0,7.0,40,0.00,,,-99.99,Weather View 32 v60,2013-09-12 20:39:00,
2013-09-12 13:49:00,82.2,54.7,29.93,NNE,31,0.0,7.0,39,0.00,,,-99.99,Weather View 32 v60,2013-09-12 20:49:00,
2013-09-12 13:59:00,82.8,55.2,29.93,NNW,331,0.0,7.0,39,0.00,,,-99.99,Weather View 32 v60,2013-09-12 20:59:00,
2013-09-12 14:09:00,83.3,55.7,29.93,SSW,199,0.0,7.0,39,0.00,,,-99.99,Weather View 32 v60,2013-09-12 21:09:00,
2013-09-12 14:19:00,83.5,53.6,29.93,SW,234,0.0,7.0,36,0.00,,,-99.99,Weather View 32 v60,2013-09-12 21:19:00,
2013-09-12 14:29:00,83.7,54.5,29.90,North,8,0.0,7.0,37,0.00,,,-99.99,Weather View 32 v60,2013-09-12 21:29:00,
2013-09-12 14:39:00,83.8,54.7,29.90,WNW,293,0.0,7.0,37,0.00,,,-99.99,Weather View 32 v60,2013-09-12 21:39:00,
2013-09-12 14:49:00,83.7,55.3,29.90,SW,228,0.0,8.0,38,0.00,,,-99.99,Weather View 32 v60,2013-09-12 21:49:00,
2013-09-12 14:59:00,83.3,53.5,29.90,WSW,243,0.0,8.0,36,0.00,,,-99.99,Weather View 32 v60,2013-09-12 21:59:00,
2013-09-12 15:09:00,83.3,55.0,29.90,WNW,293,7.0,11.0,38,0.00,,,-99.99,Weather View 32 v60,2013-09-12 22:09:00,
2013-09-12 15:19:00,82.9,53.9,29.90,NNW,338,8.0,13.0,37,0.00,,,-99.99,Weather View 32 v60,2013-09-12 22:19:00,
2013-09-12 15:30:00,82.9,53.9,29.90,NNW,338,8.0,13.0,37,0.00,,,-99.99,Weather View 32 v60,2013-09-12 22:30:00,
2013-09-12 15:37:00,83.1,54.8,29.90,NNW,346,0.0,13.0,38,0.00,,,-99.99,Weather View 32 v60,2013-09-12 22:37:00,
2013-09-12 15:50:00,85.1,53.5,29.90,NNE,20,3.0,13.0,34,0.00,,,-99.99,Weather View 32 v60,2013-09-12 22:50:00,
2013-09-12 16:10:00,85.1,53.5,29.90,NNE,20,3.0,13.0,34,0.00,,,-99.99,Weather View 32 v60,2013-09-12 23:10:00,
2013-09-12 16:19:00,84.0,52.5,29.90,SSW,210,6.0,8.0,34,0.00,,,-99.99,Weather View 32 v60,2013-09-12 23:19:00,
2013-09-12 16:26:00,84.0,52.5,29.90,SSW,210,6.0,8.0,34,0.00,,,-99.99,Weather View 32 v60,2013-09-12 23:26:00,
2013-09-12 16:40:00,82.9,52.4,29.87,NNE,15,0.0,8.0,35,0.00,,,-99.99,Weather View 32 v60,2013-09-12 23:40:00,
2013-09-12 16:50:00,82.4,52.7,29.87,WSW,238,0.0,8.0,36,0.00,,,-99.99,Weather View 32 v60,2013-09-12 23:50:00,
2013-09-12 17:00:00,82.4,54.2,29.87,SW,225,0.0,9.0,38,0.00,,,-99.99,Weather View 32 v60,2013-09-13 00:00:00,
2013-09-12 17:10:00,81.1,53.8,29.87,WSW,253,3.0,9.0,39,0.00,,,-99.99,Weather View 32 v60,2013-09-13 00:10:00,
2013-09-12 17:20:00,79.5,53.7,29.87,WSW,238,3.0,9.0,41,0.00,,,-99.99,Weather View 32 v60,2013-09-13 00:20:00,
2013-09-12 17:27:00,79.5,53.7,29.87,WSW,238,3.0,9.0,41,0.00,,,-99.99,Weather View 32 v60,2013-09-13 00:27:00,
2013-09-12 17:40:00,77.7,54.0,29.87,SSW,205,0.0,10.0,44,0.00,,,-99.99,Weather View 32 v60,2013-09-13 00:40:00,
2013-09-12 17:50:00,76.8,53.8,29.87,SW,234,3.0,10.0,45,0.00,,,-99.99,Weather View 32 v60,2013-09-13 00:50:00,
2013-09-12 18:00:00,75.6,54.4,29.87,West,259,4.0,10.0,48,0.00,,,-99.99,Weather View 32 v60,2013-09-13 01:00:00,
2013-09-12 18:10:00,74.3,54.9,29.87,WNW,282,0.0,10.0,51,0.00,,,-99.99,Weather View 32 v60,2013-09-13 01:10:00,
2013-09-12 18:20:00,73.4,55.7,29.87,West,279,0.0,10.0,54,0.00,,,-99.99,Weather View 32 v60,2013-09-13 01:20:00,
2013-09-12 18:27:00,73.4,55.7,29.87,West,279,0.0,10.0,54,0.00,,,-99.99,Weather View 32 v60,2013-09-13 01:27:00,
2013-09-12 18:40:00,71.1,56.0,29.90,WNW,302,0.0,10.0,59,0.00,,,-99.99,Weather View 32 v60,2013-09-13 01:40:00,
2013-09-12 18:50:00,70.0,55.9,29.90,NW,304,3.0,10.0,61,0.00,,,-99.99,Weather View 32 v60,2013-09-13 01:50:00,
2013-09-12 19:00:00,69.1,55.9,29.90,West,268,0.0,9.0,63,0.00,,,-99.99,Weather View 32 v60,2013-09-13 02:00:00,
2013-09-12 19:10:00,68.2,55.9,29.90,NW,322,0.0,9.0,65,0.00,,,-99.99,Weather View 32 v60,2013-09-13 02:10:00,
2013-09-12 19:20:00,67.1,56.6,29.90,NNW,334,0.0,9.0,69,0.00,,,-99.99,Weather View 32 v60,2013-09-13 02:20:00,
2013-09-12 19:28:00,67.1,56.6,29.90,NNW,334,0.0,9.0,69,0.00,,,-99.99,Weather View 32 v60,2013-09-13 02:28:00,
2013-09-12 19:40:00,65.5,56.6,29.90,WNW,286,0.0,9.0,73,0.00,,,-99.99,Weather View 32 v60,2013-09-13 02:40:00,
2013-09-12 19:50:00,64.9,56.8,29.90,SSW,211,0.0,9.0,75,0.00,,,-99.99,Weather View 32 v60,2013-09-13 02:50:00,
2013-09-12 20:00:00,64.8,56.6,29.90,WSW,246,0.0,9.0,75,0.00,,,-99.99,Weather View 32 v60,2013-09-13 03:00:00,
2013-09-12 20:07:00,64.8,56.6,29.90,WSW,246,0.0,9.0,75,0.00,,,-99.99,Weather View 32 v60,2013-09-13 03:07:00,
2013-09-12 20:19:00,64.0,56.7,29.90,West,268,0.0,7.0,77,0.00,,,-99.99,Weather View 32 v60,2013-09-13 03:19:00,
2013-09-12 20:30:00,63.7,56.7,29.93,NW,305,0.0,5.0,78,0.00,,,-99.99,Weather View 32 v60,2013-09-13 03:30:00,
2013-09-12 20:39:00,63.7,57.0,29.93,NNW,347,0.0,0.0,79,0.00,,,-99.99,Weather View 32 v60,2013-09-13 03:39:00,
2013-09-12 20:49:00,63.3,57.0,29.93,NNW,335,0.0,0.0,80,0.00,,,-99.99,Weather View 32 v60,2013-09-13 03:49:00,
2013-09-12 20:59:00,63.0,56.7,29.93,NNW,347,0.0,0.0,80,0.00,,,-99.99,Weather View 32 v60,2013-09-13 03:59:00,
2013-09-12 21:07:00,63.0,56.7,29.93,NNW,347,0.0,0.0,80,0.00,,,-99.99,Weather View 32 v60,2013-09-13 04:07:00,
2013-09-12 21:19:00,62.8,56.8,29.93,NNE,30,0.0,0.0,81,0.00,,,-99.99,Weather View 32 v60,2013-09-13 04:19:00,
2013-09-12 21:29:00,62.6,56.7,29.93,NNE,30,0.0,0.0,81,0.00,,,-99.99,Weather View 32 v60,2013-09-13 04:29:00,
2013-09-12 21:49:00,62.2,56.3,29.93,North,351,0.0,0.0,81,0.00,,,-99.99,Weather View 32 v60,2013-09-13 04:49:00,
2013-09-12 21:59:00,61.9,56.3,29.93,North,5,0.0,0.0,82,0.00,,,-99.99,Weather View 32 v60,2013-09-13 04:59:00,
2013-09-12 22:08:00,61.9,56.3,29.93,North,5,0.0,0.0,82,0.00,,,-99.99,Weather View 32 v60,2013-09-13 05:08:00,
2013-09-12 22:19:00,61.5,57.0,29.93,NNW,337,0.0,0.0,85,0.00,,,-99.99,Weather View 32 v60,2013-09-13 05:19:00,
2013-09-12 22:29:00,61.3,57.1,29.93,NW,316,0.0,0.0,86,0.00,,,-99.99,Weather View 32 v60,2013-09-13 05:29:00,
2013-09-12 22:39:00,61.2,57.6,29.93,WSW,250,0.0,0.0,88,0.00,,,-99.99,Weather View 32 v60,2013-09-13 05:39:00,
2013-09-12 22:49:00,61.0,57.1,29.93,NW,315,0.0,0.0,87,0.00,,,-99.99,Weather View 32 v60,2013-09-13 05:49:00,
2013-09-12 22:59:00,61.0,57.1,29.93,NW,315,0.0,0.0,87,0.00,,,-99.99,Weather View 32 v60,2013-09-13 05:59:00,
2013-09-12 23:08:00,61.0,57.1,29.93,NW,315,0.0,0.0,87,0.00,,,-99.99,Weather View 32 v60,2013-09-13 06:08:00,
2013-09-12 23:19:00,60.6,56.7,29.93,WSW,252,0.0,0.0,87,0.00,,,-99.99,Weather View 32 v60,2013-09-13 06:19:00,
2013-09-12 23:29:00,60.4,56.9,29.93,WSW,252,0.0,0.0,88,0.00,,,-99.99,Weather View 32 v60,2013-09-13 06:29:00,
2013-09-12 23:39:00,60.3,56.7,29.93,WSW,252,0.0,0.0,88,0.00,,,-99.99,Weather View 32 v60,2013-09-13 06:39:00,
2013-09-12 23:49:00,60.1,56.5,29.93,WSW,252,0.0,0.0,88,0.00,,,-99.99,Weather View 32 v60,2013-09-13 06:49:00,
2013-09-12 23:59:00,60.1,56.5,29.93,WSW,252,0.0,0.0,88,0.00,,,-99.99,Weather View 32 v60,2013-09-13 06:59:00,